Location: Rosenheim
(47.8408°N, 12.2113°E)
Time: 15:38:40
(UTC+02:00)

ISS - Pass Details

Date: 30 March 2017
Orbit: 400 x 409 km, 51.6° (Epoch: 26 April)

Event Time Altitude Azimuth Distance (km) Brightness Sun altitude
Rises 22:21:54 0° 269° (W) 2,318 0.7 -25.7°
Reaches altitude 10° 22:24:02 10° 276° (W) 1,462 -0.3 -26.0°
Enters shadow 22:25:31 23° 289° (WNW) 907 -1.5 -26.2°
